Amsterdam, Netherlands

10:31 AM CEST on October 23, 2019 (GMT +0200)
Schiphol

Weather History for EHAM - August, 2019

Change the Weather History Date:

Monday, August 26, 2019

  Actual Average Record
Temperature  
Mean Temperature 72 °F -  
Max Temperature 86 °F 65 °F 78 °F (2001)
Min Temperature 59 °F 52 °F 44 °F (2018)
Cooling Degree Days 8    
Growing Degree Days 22 (Base 50)    
Moisture  
Dew Point 61 °F    
Average Humidity 64    
Maximum Humidity 100    
Minimum Humidity 30    
Precipitation  
Precipitation 0.00 in - - ()
Sea Level Pressure  
Sea Level Pressure 30.07 in    
Wind  
Wind Speed 4 mph ()    
Max Wind Speed 11 mph    
Max Gust Speed -    
Visibility 9.0 miles    
Events Fog    
Averages and records for this station are not official NWS values.
T = Trace of Precipitation, MM = Missing Value Source: Averaged Metar Reports

Daily Weather History Graph

Daily Weather History Graph

Search for Another Location

Airport or City:

Astronomy

Aug. 26, 2019 Rise Set
Actual Time 6:41 AM CEST 8:42 PM CEST
Civil Twilight 6:05 AM CEST 9:19 PM CEST
Nautical Twilight 5:19 AM CEST 10:04 PM CEST
Astronomical Twilight 4:26 AM CEST 10:56 PM CEST
Moon 1:25 AM CEST (8/26) 6:19 PM CEST (8/26)
Length of Visible Light 15h 14m
Length of Day
14h 01m
Waning Crescent, 22% of the Moon is Illuminated
Aug 26
Waning Crescent
Aug 30
New
Sep 6
First Quarter
Sep 14
Full
Sep 22
Last Quarter

Hourly Weather History & Observations

Time (CEST) Temp. Heat Index Dew Point Humidity Pressure Visibility Wind Dir Wind Speed Gust Speed Precip Events Conditions
12:25 AM 68.0 °F - 60.8 °F 78% 30.12 in - Variable 1.2 mph - N/A   Clear
12:55 AM 66.2 °F - 60.8 °F 83% 30.09 in - Variable 2.3 mph - N/A   Clear
1:00 AM 66 °F - 60 °F 77% 30.12 in 9 mi NE 2.2 mph - -   Partly Cloudy
1:25 AM 66.2 °F - 60.8 °F 83% 30.09 in - Variable 2.3 mph - N/A   Clear
1:55 AM 66.2 °F - 60.8 °F 83% 30.09 in - Variable 2.3 mph - N/A   Clear
2:25 AM 66.2 °F - 62.6 °F 88% 30.09 in - East 3.5 mph - N/A   Clear
2:55 AM 66.2 °F - 62.6 °F 88% 30.09 in - ENE 3.5 mph - N/A   Clear
3:00 AM 66 °F - 64 °F 89% 30.10 in 7 mi NE 2.2 mph - -   Partly Cloudy
3:25 AM 64.4 °F - 60.8 °F 88% 30.09 in - NNE 1.2 mph - N/A   Clear
3:55 AM 62.6 °F - 60.8 °F 94% 30.09 in 5.6 mi North 2.3 mph - N/A Fog Fog
4:00 AM 62 °F - 59 °F 87% 30.10 in 5 mi NNW 2.2 mph - -   Mist
4:25 AM 60.8 °F - 59.0 °F 94% 30.09 in 5.6 mi NNW 1.2 mph - N/A Fog Fog
4:55 AM 62.6 °F - 60.8 °F 94% 30.09 in 5.6 mi ENE 1.2 mph - N/A Fog Fog
5:25 AM 62.6 °F - 60.8 °F 94% 30.09 in 5.6 mi East 2.3 mph - N/A Fog Fog
5:55 AM 60.8 °F - 59.0 °F 94% 30.09 in 5.6 mi ENE 2.3 mph - N/A Fog Fog
6:25 AM 60.8 °F - 60.8 °F 100% 30.09 in 5.6 mi ENE 3.5 mph - N/A Fog Fog
6:55 AM 62.6 °F - 60.8 °F 94% 30.09 in 6.2 mi Variable 1.2 mph - N/A Fog Shallow Fog
7:00 AM 63 °F - 61 °F 90% 30.09 in 7 mi Calm Calm - -   Partly Cloudy
7:25 AM 64.4 °F - 60.8 °F 88% 30.09 in 6.2 mi Variable 1.2 mph - N/A Fog Shallow Fog
8:00 AM 66 °F - 64 °F 90% 30.10 in 6 mi Calm Calm - -   Partly Cloudy
8:25 AM 69.8 °F - 66.2 °F 88% 30.09 in - ENE 1.2 mph - N/A   Clear
8:55 AM 73.4 °F - 64.4 °F 73% 30.09 in - Variable 1.2 mph - N/A   Clear
9:25 AM 75.2 °F - 64.4 °F 69% 30.09 in - Variable 2.3 mph - N/A   Clear
9:55 AM 77.0 °F - 64.4 °F 65% 30.09 in - East 3.5 mph - N/A   Clear
10:25 AM 78.8 °F - 62.6 °F 57% 30.09 in - East 5.8 mph - N/A   Clear
11:00 AM 81 °F - 62 °F 43% 30.11 in 17 mi ENE 6.7 mph - -  
11:25 AM 82.4 °F 82.9 °F 60.8 °F 48% 30.09 in - ENE 8.1 mph - N/A   Clear
11:55 AM 82.4 °F 82.5 °F 59.0 °F 45% 30.09 in - ENE 8.1 mph - N/A   Clear
12:00 PM 83 °F - 60 °F 35% 30.11 in 19 mi ENE 8.9 mph - -   Partly Cloudy
12:25 PM 84.2 °F 83.8 °F 59.0 °F 42% 30.09 in - East 9.2 mph - N/A   Clear
12:55 PM 84.2 °F 83.8 °F 59.0 °F 42% 30.09 in - ENE 10.4 mph - N/A   Clear
1:00 PM 84 °F - 58 °F 30% 30.10 in 22 mi ENE 11.2 mph - -  
1:25 PM 84.2 °F 83.5 °F 57.2 °F 40% 30.06 in - ENE 9.2 mph - N/A   Clear
1:55 PM 84.2 °F 83.5 °F 57.2 °F 40% 30.06 in - NE 9.2 mph - N/A   Clear
2:25 PM 86.0 °F 85.4 °F 59.0 °F 40% 30.06 in - ENE 9.2 mph - N/A   Clear
2:55 PM 84.2 °F 83.8 °F 59.0 °F 42% 30.06 in - ENE 9.2 mph - N/A   Clear
3:25 PM 86.0 °F 85.4 °F 59.0 °F 40% 30.06 in - NE 9.2 mph - N/A   Clear
3:55 PM 86.0 °F 86.1 °F 60.8 °F 43% 30.06 in - ENE 8.1 mph - N/A   Clear
4:25 PM 86.0 °F 86.1 °F 60.8 °F 43% 30.04 in - NE 8.1 mph - N/A   Clear
4:55 PM 86.0 °F 86.1 °F 60.8 °F 43% 30.04 in - ENE 8.1 mph - N/A   Clear
5:25 PM 84.2 °F 85.0 °F 62.6 °F 48% 30.04 in - ENE 8.1 mph - N/A   Clear
5:55 PM 84.2 °F 85.0 °F 62.6 °F 48% 30.04 in - NNE 8.1 mph - N/A   Clear
6:55 PM 82.4 °F 83.4 °F 62.6 °F 51% 30.04 in - NE 8.1 mph - N/A   Clear
7:00 PM 83 °F - 60 °F 36% 30.04 in 19 mi NE 6.7 mph - -   Partly Cloudy
7:25 PM 82.4 °F 82.9 °F 60.8 °F 48% 30.04 in - NE 8.1 mph - N/A   Clear
7:55 PM 80.6 °F 81.5 °F 60.8 °F 51% 30.01 in - NE 8.1 mph - N/A   Clear
8:25 PM 78.8 °F - 60.8 °F 54% 30.01 in - NE 6.9 mph - N/A   Clear
8:55 PM 77.0 °F - 60.8 °F 57% 30.01 in - NNE 6.9 mph - N/A   Clear
9:00 PM 78 °F - 61 °F 46% 30.03 in 18 mi NNE 6.7 mph - -   Partly Cloudy
9:25 PM 77.0 °F - 62.6 °F 61% 30.01 in - NE 8.1 mph - N/A   Clear
9:55 PM 77.0 °F - 62.6 °F 61% 30.04 in - NE 8.1 mph - N/A   Clear
10:25 PM 75.2 °F - 60.8 °F 61% 30.04 in - NE 8.1 mph - N/A   Clear
10:55 PM 75.2 °F - 60.8 °F 61% 30.04 in - NE 8.1 mph - N/A   Clear
11:00 PM 74 °F - 60 °F 53% 30.04 in 22 mi NE 8.9 mph - -   Partly Cloudy
11:25 PM 73.4 °F - 59.0 °F 61% 30.04 in - NE 8.1 mph - N/A   Clear
11:55 PM 73.4 °F - 60.8 °F 65% 30.04 in - NE 8.1 mph - N/A   Clear